Location: Dabrowa Gornicza
(50.3330°N, 19.2000°E)
Time: 22:44:40
(UTC+01:00)

ISS - Visible Passes

Search period start: 30 November 2022 00:00
Search period end: 10 December 2022 00:00
Orbit: 415 x 420 km, 51.6° (Epoch: 30 November)

Date Brightness Start Highest point End Pass type
(mag) Time Alt. Az. Time Alt. Az. Time Alt. Az.
30 Nov -3.8 17:03:55 10° WNW 17:07:17 72° N 17:09:13 23° E visible
30 Nov -1.2 18:40:45 10° W 18:42:09 22° W 18:42:09 22° W visible
01 Dec -3.6 17:52:43 10° WNW 17:56:03 65° SSW 17:56:13 63° S visible
02 Dec -3.8 17:04:41 10° WNW 17:08:03 83° SSW 17:10:23 19° ESE visible
02 Dec -1.1 18:41:47 10° W 18:43:19 19° WSW 18:43:19 19° WSW visible
03 Dec -3.8 16:16:41 10° WNW 16:20:03 81° NNE 16:23:24 10° E visible
03 Dec -2.3 17:53:35 10° W 17:56:39 34° SSW 17:57:38 28° S visible
04 Dec -2.9 17:05:29 10° WNW 17:08:45 48° SSW 17:11:58 10° SE visible
04 Dec -0.6 18:43:49 10° WSW 18:44:53 11° SW 18:45:06 11° SW visible
05 Dec -3.3 16:17:27 10° WNW 16:20:47 66° SSW 16:24:06 10° ESE visible
05 Dec -1.0 17:54:52 10° W 17:57:06 17° SW 17:59:20 10° S visible
06 Dec -1.4 17:06:30 10° W 17:09:16 24° SW 17:12:03 10° SSE visible
07 Dec -2.0 16:18:18 10° W 16:21:24 35° SSW 16:24:29 10° SE visible
08 Dec -0.4 17:08:26 10° WSW 17:09:38 12° SW 17:10:50 10° SSW visible
09 Dec -0.6 16:19:33 10° W 16:21:51 17° SW 16:24:08 10° S visible
